Location: Larrial
(48.2758°N, 4.5331°W)
Time: 11:41:36
(UTC+00:00)

AAUSAT CUBESAT 2 - Visible Passes

Search period start: 29 November 2022 00:00
Search period end: 09 December 2022 00:00
Orbit: 563 x 576 km, 97.5° (Epoch: 28 November)

Date Brightness Start Highest point End Pass type
(mag) Time Alt. Az. Time Alt. Az. Time Alt. Az.
29 Nov ? 05:32:42 10° N 05:34:28 24° N 05:34:28 24° N visible
30 Nov ? 05:34:28 10° N 05:35:57 21° N 05:35:57 21° N visible
01 Dec ? 05:36:14 10° N 05:37:26 18° N 05:37:26 18° N visible
02 Dec ? 05:37:58 10° N 05:38:56 16° N 05:38:56 16° N visible
03 Dec ? 05:39:42 10° N 05:40:26 14° N 05:40:26 14° N visible
04 Dec ? 05:41:26 10° N 05:41:57 13° N 05:41:57 13° N visible
05 Dec ? 05:43:10 10° N 05:43:27 12° N 05:43:27 12° N visible
06 Dec ? 05:44:53 10° N 05:44:58 10° N 05:44:58 10° N visible
